EW4729 Weather Reports


Display with metric or nautical units.
time (UTC)temp
F
wind
direction
speed
MPH
gust
MPH
rain 1hr
in
rain 24hr
in
rain mn
in
humidity
%
barometer
mb
20260506082052 76 157 2.0 7.0 0.00 0.00 0.00 92 1008.5
20260506081556 76 184 3.0 9.0 0.00 0.00 0.00 92 1008.4
20260506081053 76 192 3.0 9.0 0.00 0.00 0.00 92 1008.4
20260506080555 76 159 3.0 12.0 0.00 0.00 0.00 92 1008.3
20260506073057 76 180 3.0 7.0 0.00 0.00 0.00 92 1009.0
20260506072553 76 161 2.0 7.0 0.00 0.00 0.00 92 1009.0
20260506072052 76 152 1.0 7.0 0.00 0.00 0.00 92 1009.1
20260506071559 76 182 2.0 8.0 0.00 0.00 0.00 92 1009.1
20260506071052 76 184 3.0 8.0 0.00 0.00 0.00 91 1009.0
20260506070553 76 175 3.0 9.0 0.00 0.00 0.00 92 1009.0
20260506062052 76 179 4.0 9.0 0.00 0.00 0.00 91 1009.3
20260506061553 76 170 4.0 11.0 0.00 0.00 0.00 91 1009.4
20260506061053 76 196 5.0 12.0 0.00 0.00 0.00 91 1009.4
20260506060552 76 180 6.0 12.0 0.00 0.00 0.00 91 1009.3
20260506051054 77 175 4.0 10.0 0.00 0.00 0.00 89 1009.6
20260506050552 77 179 5.0 11.0 0.00 0.00 0.00 89 1009.6
20260506045052 77 196 7.0 12.0 0.00 0.00 0.00 89 1009.6
20260506044702 77 202 5.0 11.0 0.00 0.00 0.00 89 1009.6
20260506044058 77 166 5.0 11.0 0.00 0.00 0.00 89 1009.6
20260506043553 77 194 4.0 10.0 0.00 0.00 0.00 89 1009.4
20260506043101 77 180 5.0 11.0 0.00 0.00 0.00 89 1009.4
20260506042552 77 180 5.0 11.0 0.00 0.00 0.00 88 1009.3
20260506042051 77 182 3.0 10.0 0.00 0.00 0.00 88 1009.3
20260506041603 77 164 4.0 10.0 0.00 0.00 0.00 88 1009.2
20260506041054 77 182 5.0 11.0 0.00 0.00 0.00 88 1009.3
20260506040557 77 187 4.0 11.0 0.00 0.00 0.00 88 1009.3
20260506040100 78 175 4.0 10.0 0.00 0.00 0.00 88 1009.3
20260506035555 78 176 4.0 8.0 0.00 0.00 0.00 88 1009.4
20260506035055 78 178 3.0 8.0 0.00 0.00 0.00 88 1009.5
20260506034629 78 182 2.0 9.0 0.00 0.00 0.00 88 1009.4
20260506034054 78 177 3.0 9.0 0.00 0.00 0.00 88 1009.3
20260506033555 78 155 2.0 8.0 0.00 0.00 0.00 88 1009.2
20260506033104 78 193 3.0 9.0 0.00 0.00 0.00 88 1009.2
20260506032554 78 198 4.0 9.0 0.00 0.00 0.00 88 1009.1
20260506032054 78 177 2.0 8.0 0.00 0.00 0.00 88 1009.0
20260506031606 78 183 2.0 8.0 0.00 0.00 0.00 87 1009.0
20260506031054 78 0 3.0 12.0 0.00 0.00 0.00 87 1008.9
20260506030553 78 175 2.0 12.0 0.00 0.00 0.00 87 1008.7
20260506030057 78 169 4.0 11.0 0.00 0.00 0.00 87 1008.7
20260506025553 78 178 2.0 9.0 0.00 0.00 0.00 87 1008.7
20260506025054 78 190 2.0 12.0 0.00 0.00 0.00 87 1008.7
20260506024558 78 178 4.0 12.0 0.00 0.00 0.00 87 1008.6
20260506024053 78 190 6.0 12.0 0.00 0.00 0.00 87 1008.4
20260506023553 78 199 7.0 12.0 0.00 0.00 0.00 87 1008.2
20260506023112 78 165 4.0 13.0 0.00 0.00 0.00 87 1008.3
20260506022552 78 205 4.0 13.0 0.00 0.00 0.00 87 1008.2
20260506022052 78 214 7.0 13.0 0.00 0.00 0.00 87 1008.2
20260506021556 78 178 6.0 13.0 0.00 0.00 0.00 87 1008.2
20260506021053 78 151 4.0 13.0 0.00 0.00 0.00 86 1008.0
20260506020553 78 192 5.0 12.0 0.00 0.00 0.00 86 1008.0
20260506020057 78 197 5.0 11.0 0.00 0.00 0.00 86 1007.9
20260506015552 78 169 5.0 13.0 0.00 0.00 0.00 86 1007.8
20260506015052 78 230 6.0 14.0 0.00 0.00 0.00 86 1007.7
20260506014554 78 184 6.0 14.0 0.00 0.00 0.00 86 1007.7
20260506014053 78 183 6.0 11.0 0.00 0.00 0.00 86 1007.7
20260506013552 79 185 2.0 11.0 0.00 0.00 0.00 86 1007.7
20260506013058 79 183 6.0 11.0 0.00 0.00 0.00 85 1007.5
20260506012553 79 206 5.0 13.0 0.00 0.00 0.00 85 1007.4
20260506012053 79 187 6.0 13.0 0.00 0.00 0.00 85 1007.4
20260506011614 79 153 5.0 11.0 0.00 0.00 0.00 85 1007.4
20260506011053 79 175 6.0 11.0 0.00 0.00 0.00 84 1007.3
20260506010553 79 210 5.0 11.0 0.00 0.00 0.00 84 1007.3
20260506005553 80 153 4.0 14.0 0.00 0.00 0.00 83 1007.2
20260506005052 80 208 6.0 14.0 0.00 0.00 0.00 83 1007.1
20260506004619 80 190 6.0 15.0 0.00 0.00 0.00 83 1006.9
20260506004052 80 190 7.0 16.0 0.00 0.00 0.00 83 1006.9
20260506003553 80 185 6.0 16.0 0.00 0.00 0.00 83 1007.0
20260506003110 80 165 7.0 12.0 0.00 0.00 0.00 82 1006.9
20260506002552 80 200 5.0 16.0 0.00 0.00 0.00 82 1006.9
20260506002052 80 159 7.0 16.0 0.00 0.00 0.00 82 1006.9
20260506001558 80 155 6.0 13.0 0.00 0.00 0.00 82 1006.9
20260506001052 81 173 6.0 13.0 0.00 0.00 0.00 81 1006.8
20260506000552 81 188 6.0 13.0 0.00 0.00 0.00 81 1006.9
20260506000057 81 190 5.0 14.0 0.00 0.00 0.00 81 1006.8
20260505235552 81 182 6.0 20.0 0.00 0.00 0.00 81 1006.7
20260505235052 81 165 7.0 21.0 0.00 0.00 0.00 81 1006.7
20260505234630 82 190 6.0 21.0 0.00 0.00 0.00 80 1006.7
20260505234052 82 219 6.0 15.0 0.00 0.00 0.00 80 1006.6
20260505233552 82 192 8.0 15.0 0.00 0.00 0.00 80 1006.6
20260505233053 82 153 7.0 14.0 0.00 0.00 0.00 80 1006.6
20260505232553 82 209 7.0 14.0 0.00 0.00 0.00 80 1006.7
20260505232053 82 178 7.0 19.0 0.00 0.00 0.00 79 1006.7
20260505231551 82 198 7.0 19.0 0.00 0.00 0.00 79 1006.6
20260505231055 82 183 7.0 14.0 0.00 0.00 0.00 78 1006.6
20260505230552 83 142 6.0 14.0 0.00 0.00 0.00 78 1006.5
20260505230054 83 181 7.0 13.0 0.00 0.00 0.00 78 1006.6
20260505225552 83 183 7.0 17.0 0.00 0.00 0.00 78 1006.6
20260505225053 83 162 6.0 17.0 0.00 0.00 0.00 78 1006.5
20260505224554 83 198 8.0 16.0 0.00 0.00 0.00 78 1006.5
20260505224053 83 196 7.0 16.0 0.00 0.00 0.00 77 1006.5
20260505223554 83 182 7.0 15.0 0.00 0.00 0.00 77 1006.6
20260505223053 84 194 8.0 20.0 0.00 0.00 0.00 77 1006.6
20260505222553 84 192 8.0 20.0 0.00 0.00 0.00 77 1006.6
20260505222053 84 195 10.0 20.0 0.00 0.00 0.00 77 1006.6
20260505221557 84 146 8.0 15.0 0.00 0.00 0.00 77 1006.6
20260505221051 84 172 10.0 18.0 0.00 0.00 0.00 76 1006.6
20260505220552 84 193 9.0 18.0 0.00 0.00 0.00 75 1006.6
20260505220105 84 215 9.0 16.0 0.00 0.00 0.00 75 1006.8
20260505215552 85 199 8.0 16.0 0.00 0.00 0.00 75 1006.8
20260505215052 85 195 8.0 23.0 0.00 0.00 0.00 75 1006.8
20260505214604 85 206 9.0 23.0 0.00 0.00 0.00 75 1006.7
20260505214052 85 184 8.0 19.0 0.00 0.00 0.00 75 1006.7
20260505213555 85 170 7.0 19.0 0.00 0.00 0.00 76 1006.9
20260505213128 85 184 10.0 19.0 0.00 0.00 0.00 75 1007.0
20260505212552 85 183 8.0 18.0 0.00 0.00 0.00 76 1007.2
20260505212052 85 174 11.0 21.0 0.00 0.00 0.00 75 1007.2
20260505211601 85 209 10.0 21.0 0.00 0.00 0.00 75 1007.2
20260505211055 85 196 12.0 18.0 0.00 0.00 0.00 75 1007.4
20260505210552 85 212 9.0 20.0 0.00 0.00 0.00 75 1007.4
20260505210054 85 173 11.0 20.0 0.00 0.00 0.00 76 1007.4
20260505205556 85 188 8.0 19.0 0.00 0.00 0.00 75 1007.5
20260505205053 85 189 8.0 19.0 0.00 0.00 0.00 74 1007.7
20260505204600 85 150 11.0 19.0 0.00 0.00 0.00 74 1007.7
20260505204052 85 176 8.0 17.0 0.00 0.00 0.00 74 1007.9
20260505203553 86 188 8.0 23.0 0.00 0.00 0.00 74 1008.0
20260505203058 86 209 8.0 23.0 0.00 0.00 0.00 75 1008.0
20260505202551 86 178 8.0 19.0 0.00 0.00 0.00 74 1008.1
20260505202053 86 192 9.0 19.0 0.00 0.00 0.00 75 1008.1
20260505201557 85 223 10.0 17.0 0.00 0.00 0.00 75 1008.1
20260505201052 85 204 7.0 18.0 0.00 0.00 0.00 75 1008.2
20260505200552 85 162 9.0 18.0 0.00 0.00 0.00 75 1008.2
20260505200054 85 182 9.0 17.0 0.00 0.00 0.00 76 1008.2
20260505195554 84 188 7.0 14.0 0.00 0.00 0.00 76 1008.3
20260505195053 84 168 7.0 17.0 0.00 0.00 0.00 76 1008.5
20260505194556 84 194 7.0 17.0 0.00 0.00 0.00 76 1008.5
20260505194053 84 215 9.0 16.0 0.00 0.00 0.00 75 1008.7
20260505193552 85 211 6.0 16.0 0.00 0.00 0.00 76 1008.6
20260505193058 85 199 8.0 18.0 0.00 0.00 0.00 76 1008.6
20260505192553 84 204 9.0 18.0 0.00 0.00 0.00 77 1008.7
20260505192052 84 219 9.0 17.0 0.00 0.00 0.00 77 1008.9
20260505191559 84 191 9.0 17.0 0.00 0.00 0.00 77 1008.8
20260505191052 84 208 11.0 16.0 0.00 0.00 0.00 77 1008.9
20260505190552 84 168 10.0 16.0 0.00 0.00 0.00 76 1009.0
20260505190057 84 198 8.0 17.0 0.00 0.00 0.00 77 1009.0
20260505185552 84 194 8.0 17.0 0.00 0.00 0.00 77 1008.9
20260505185052 84 206 9.0 16.0 0.00 0.00 0.00 77 1008.9
20260505184602 84 219 11.0 16.0 0.00 0.00 0.00 76 1009.0
20260505184054 83 203 8.0 17.0 0.00 0.00 0.00 78 1009.0
20260505183552 83 206 11.0 17.0 0.00 0.00 0.00 79 1009.1
20260505183059 82 212 9.0 15.0 0.00 0.00 0.00 79 1009.1
20260505182552 82 211 8.0 14.0 0.00 0.00 0.00 80 1009.1
20260505182056 82 227 8.0 15.0 0.00 0.00 0.00 80 1009.2
20260505181559 82 204 6.0 15.0 0.00 0.00 0.00 81 1009.3
20260505181056 82 213 12.0 16.0 0.00 0.00 0.00 80 1009.2
20260505180555 82 207 9.0 16.0 0.00 0.00 0.00 80 1009.2
20260505175552 82 200 8.0 13.0 0.00 0.00 0.00 80 1009.4
20260505175056 81 221 8.0 13.0 0.00 0.00 0.00 81 1009.3
20260505174610 82 159 5.0 15.0 0.00 0.00 0.00 81 1009.3
20260505174053 82 202 8.0 16.0 0.00 0.00 0.00 80 1009.5
20260505173553 82 208 10.0 16.0 0.00 0.00 0.00 81 1009.5
20260505173100 81 212 10.0 18.0 0.00 0.00 0.00 80 1009.6
20260505172554 81 207 11.0 18.0 0.00 0.00 0.00 80 1009.6
20260505172052 81 217 12.0 18.0 0.00 0.00 0.00 81 1009.6
20260505171555 81 174 10.0 17.0 0.00 0.00 0.00 81 1009.6
20260505171052 81 196 7.0 19.0 0.00 0.00 0.00 82 1009.6
20260505170551 81 211 10.0 19.0 0.00 0.00 0.00 82 1009.6
20260505170136 80 211 12.0 18.0 0.00 0.00 0.00 82 1009.7
20260505165553 80 221 9.0 16.0 0.00 0.00 0.00 82 1009.7
20260505165053 80 209 8.0 17.0 0.00 0.00 0.00 82 1009.7
20260505164552 80 155 10.0 21.0 0.00 0.00 0.00 82 1009.7
20260505164055 80 210 11.0 21.0 0.00 0.00 0.00 81 1009.7
20260505163551 80 202 11.0 20.0 0.00 0.00 0.00 82 1009.6
20260505163055 80 218 11.0 20.0 0.00 0.00 0.00 82 1009.7
20260505162552 80 212 12.0 18.0 0.00 0.00 0.00 82 1009.7
20260505162051 80 222 11.0 19.0 0.00 0.00 0.00 83 1009.6
20260505161604 80 205 11.0 19.0 0.00 0.00 0.00 83 1009.7
20260505161052 79 203 12.0 19.0 0.00 0.00 0.00 83 1009.7
20260505160554 79 230 9.0 19.0 0.00 0.00 0.00 84 1009.7
20260505153100 77 223 10.0 15.0 0.00 0.00 0.00 88 1009.7
20260505152551 77 205 8.0 14.0 0.00 0.00 0.00 88 1009.7
20260505152051 77 213 8.0 12.0 0.00 0.00 0.00 89 1009.6
20260505151558 76 171 7.0 17.0 0.00 0.00 0.00 89 1009.5
20260505151052 76 220 7.0 17.0 0.00 0.00 0.00 89 1009.5
20260505150554 76 214 9.0 16.0 0.00 0.00 0.00 89 1009.5
20260505140552 74 219 9.0 14.0 0.00 0.00 0.00 91 1009.2
20260505124554 73 180 9.0 15.0 0.00 0.00 0.00 93 1009.0
20260505124052 73 202 8.0 13.0 0.00 0.00 0.00 93 1008.9
20260505123551 72 193 7.0 12.0 0.00 0.00 0.00 93 1008.9
20260505123112 72 182 6.0 10.0 0.00 0.00 0.00 93 1008.9
20260505122552 72 188 5.0 10.0 0.00 0.00 0.00 93 1008.9
20260505122052 72 193 5.0 12.0 0.00 0.00 0.00 93 1009.0
20260505121556 72 202 5.0 12.0 0.00 0.00 0.00 93 1009.0
20260505121052 72 187 7.0 12.0 0.00 0.00 0.00 93 1008.8
20260505120552 72 186 5.0 11.0 0.00 0.00 0.00 93 1008.6
20260505120055 72 200 6.0 11.0 0.00 0.00 0.00 93 1008.7
20260505115553 72 188 7.0 11.0 0.00 0.00 0.00 93 1008.6
20260505115052 71 198 5.0 11.0 0.00 0.00 0.00 93 1008.7
20260505114612 71 186 5.0 9.0 0.00 0.00 0.00 93 1008.6
20260505114052 71 207 5.0 10.0 0.00 0.00 0.00 93 1008.5
20260505113555 71 205 5.0 10.0 0.00 0.00 0.00 93 1008.3
20260505113053 71 202 4.0 8.0 0.00 0.00 0.00 93 1008.4
20260505112556 71 195 4.0 10.0 0.00 0.00 0.00 93 1008.3
20260505112052 71 193 5.0 11.0 0.00 0.00 0.00 93 1008.4
20260505111605 71 202 6.0 11.0 0.00 0.00 0.00 93 1008.3
20260505111053 71 217 6.0 10.0 0.00 0.00 0.00 93 1008.3
20260505110552 71 190 5.0 10.0 0.00 0.00 0.00 93 1008.5
20260505102052 71 198 4.0 11.0 0.00 0.00 0.00 93 1008.3
20260505101554 71 200 5.0 11.0 0.00 0.00 0.00 93 1008.6
20260505101052 70 182 5.0 10.0 0.00 0.00 0.00 93 1008.7
20260505100552 70 199 5.0 9.0 0.00 0.00 0.00 93 1008.7
20260505100055 70 177 4.0 9.0 0.00 0.00 0.00 93 1008.8
20260505095552 70 188 5.0 9.0 0.00 0.00 0.00 92 1008.6
20260505095053 70 191 4.0 10.0 0.00 0.00 0.00 92 1008.6
20260505094556 70 195 6.0 11.0 0.00 0.00 0.00 92 1008.6
20260505094054 70 189 5.0 11.0 0.00 0.00 0.00 92 1008.5
20260505093551 70 187 6.0 9.0 0.00 0.00 0.00 92 1008.6
20260505093053 70 189 4.0 8.0 0.00 0.00 0.00 92 1008.6
20260505092550 70 182 4.0 7.0 0.00 0.00 0.00 92 1008.9
20260505092051 70 194 4.0 7.0 0.00 0.00 0.00 92 1009.0
20260505091600 70 192 4.0 7.0 0.00 0.00 0.00 92 1008.9
20260505091051 70 176 3.0 6.0 0.00 0.00 0.00 92 1008.9
20260505090552 70 189 2.0 6.0 0.00 0.00 0.00 92 1008.9
20260505090059 70 190 2.0 6.0 0.00 0.00 0.00 91 1008.9
20260505085552 70 178 3.0 6.0 0.00 0.00 0.00 91 1008.8
20260505085053 70 188 3.0 6.0 0.00 0.00 0.00 91 1008.9
20260505084553 70 194 3.0 7.0 0.00 0.00 0.00 91 1009.0
20260505084052 70 193 4.0 7.0 0.00 0.00 0.00 91 1009.0
20260505083551 70 182 4.0 7.0 0.00 0.00 0.00 91 1009.1
20260505083105 70 185 3.0 7.0 0.00 0.00 0.00 91 1009.1
20260505082555 70 190 3.0 9.0 0.00 0.00 0.00 91 1009.2